Weather History for Viroqua, WI

Change the Weather History Date:

Saturday, April 19, 2014

  Actual Average (KLSE) Record (KLSE)
Temperature  
Mean Temperature 50 °F 50 °F  
Max Temperature 67 °F 61 °F 87 °F (1985)
Min Temperature 33 °F 40 °F 20 °F (1983)
Degree Days  
Heating Degree Days 15 15  
Month to date heating degree days 360  
Since 1 July heating degree days 6813  
Cooling Degree Days 0 0  
Month to date cooling degree days 0  
Year to date cooling degree days 0  
Moisture  
Dew Point 32 °F    
Average Humidity 51    
Maximum Humidity 80    
Minimum Humidity 33    
Precipitation  
Precipitation 0.00 in 0.12 in 1.60 in (2012)
Month to date precipitation 2.01  
Year to date precipitation 6.22  
Snow  
Snow 0.00 in 0.10 in 3.10 in (2011)
Month to date snowfall 1.4  
Since 1 July snowfall 43.0  
Snow Depth -    
Sea Level Pressure  
Sea Level Pressure 30.21 in    
Wind  
Wind Speed 15 mph (SE)    
Max Wind Speed 21 mph    
Max Gust Speed 28 mph    
Visibility 10 miles    
Events      
T = Trace of Precipitation, MM = Missing Value Source: NWS Daily Summary

Daily Weather History Graph

Daily Weather History Graph

Search for Another Location

Airport:

Trip Planner

Search our weather history database for the weather conditions in past years. The results will help you decide how hot, cold, wet, or windy it might be!

Date:

Astronomy

Apr. 19, 2014 Rise Set
Actual Time 6:14 AM CDT 7:51 PM CDT
Civil Twilight 5:44 AM CDT 8:22 PM CDT
Nautical Twilight 5:07 AM CDT 8:58 PM CDT
Astronomical Twilight 4:28 AM CDT 9:38 PM CDT
Moon No Moon Rise 9:28 AM CDT (4/19)
Length of Visible Light 14h 37m
Length of Day
13h 37m
Waning Gibbous, 78% of the Moon is Illuminated
Apr 19
Waning Gibbous
Apr 22
Last Quarter
Apr 29
New
May 6
First Quarter
May 14
Full

Hourly Weather History & Observations

Time (CDT) Temp. Windchill Dew Point Humidity Pressure Visibility Wind Dir Wind Speed Gust Speed Precip Events Conditions
12:14 AM 42.1 °F 35.7 °F 28.9 °F 60% 30.26 in 10.0 mi ESE 11.5 mph - N/A   Clear
12:34 AM 41.9 °F 35.0 °F 29.5 °F 61% 30.27 in 10.0 mi ESE 12.7 mph - N/A   Clear
12:54 AM 41.7 °F 34.1 °F 30.2 °F 64% 30.27 in 10.0 mi ESE 15.0 mph - N/A   Clear
1:14 AM 41.0 °F 33.9 °F 30.9 °F 67% 30.27 in 10.0 mi ESE 12.7 mph - N/A   Clear
1:34 AM 40.1 °F 32.0 °F 31.8 °F 72% 30.28 in 10.0 mi ESE 15.0 mph 18.4 mph N/A   Clear
1:54 AM 40.1 °F 31.6 °F 31.8 °F 72% 30.28 in 10.0 mi ESE 16.1 mph 21.9 mph N/A   Clear
2:14 AM 39.2 °F 30.8 °F 31.8 °F 75% 30.29 in 10.0 mi ESE 15.0 mph - N/A   Clear
2:34 AM 38.1 °F 29.5 °F 31.1 °F 76% 30.31 in 10.0 mi ESE 15.0 mph 19.6 mph N/A   Clear
2:54 AM 37.4 °F 28.9 °F 30.7 °F 77% 30.31 in 10.0 mi ESE 13.8 mph 19.6 mph N/A   Clear
3:14 AM 36.5 °F 27.8 °F 30.4 °F 78% 30.30 in 10.0 mi ESE 13.8 mph 19.6 mph N/A   Clear
3:34 AM 35.6 °F 27.5 °F 30.0 °F 80% 30.31 in 10.0 mi ESE 11.5 mph - N/A   Clear
3:54 AM 34.9 °F 25.7 °F 29.3 °F 80% 30.30 in 10.0 mi ESE 13.8 mph 17.3 mph N/A   Clear
4:14 AM 34.5 °F 24.5 °F 28.4 °F 78% 30.30 in 10.0 mi ESE 16.1 mph - N/A   Clear
4:54 AM 33.8 °F 25.3 °F 27.0 °F 76% 30.30 in 10.0 mi ESE 11.5 mph 18.4 mph N/A   Clear
5:14 AM 33.4 °F 24.3 °F 26.4 °F 75% 30.30 in 10.0 mi ESE 12.7 mph - N/A   Clear
5:34 AM 33.3 °F 23.2 °F 25.9 °F 74% 30.30 in 10.0 mi ESE 15.0 mph - N/A   Clear
5:54 AM 33.1 °F 24.4 °F 25.7 °F 74% 30.30 in 10.0 mi ESE 11.5 mph - N/A   Clear
6:14 AM 33.1 °F 24.4 °F 25.7 °F 74% 30.31 in 10.0 mi ESE 11.5 mph - N/A   Clear
6:34 AM 33.1 °F 23.9 °F 25.5 °F 74% 30.32 in 10.0 mi ESE 12.7 mph 16.1 mph N/A   Clear
6:54 AM 33.6 °F 24.1 °F 25.7 °F 73% 30.31 in 10.0 mi ESE 13.8 mph 20.7 mph N/A   Clear
7:14 AM 34.3 °F 24.2 °F 25.5 °F 70% 30.31 in 10.0 mi ESE 16.1 mph - N/A   Clear
7:34 AM 35.6 °F 25.5 °F 25.0 °F 65% 30.30 in 10.0 mi ESE 17.3 mph 23.0 mph N/A   Clear
7:54 AM 35.6 °F 24.5 °F 24.6 °F 64% 30.29 in 10.0 mi ESE 20.7 mph 26.5 mph N/A   Clear
8:14 AM 37.9 °F 28.2 °F 25.7 °F 61% 30.28 in 10.0 mi ESE 18.4 mph 23.0 mph N/A   Clear
8:54 AM 40.1 °F 31.6 °F 25.3 °F 56% 30.29 in 10.0 mi SE 16.1 mph 26.5 mph N/A   Clear
9:14 AM 42.1 °F 35.2 °F 26.2 °F 53% 30.29 in 10.0 mi SE 12.7 mph 23.0 mph N/A   Clear
9:34 AM 43.9 °F 35.9 °F 26.8 °F 51% 30.28 in 10.0 mi SE 18.4 mph 21.9 mph N/A   Clear
9:54 AM 45.9 °F 38.3 °F 27.0 °F 48% 30.27 in 10.0 mi SE 19.6 mph 24.2 mph N/A   Clear
10:14 AM 46.8 °F - 27.1 °F 46% 30.27 in 10.0 mi SSE 18.4 mph 25.3 mph N/A   Clear
10:34 AM 48.4 °F - 27.9 °F 45% 30.26 in 10.0 mi SE 18.4 mph 23.0 mph N/A   Clear
10:54 AM 49.8 °F - 28.9 °F 45% 30.25 in 10.0 mi SE 18.4 mph 24.2 mph N/A   Clear
11:14 AM 52.0 °F - 29.7 °F 42% 30.24 in 10.0 mi SSE 19.6 mph 23.0 mph N/A   Clear
11:34 AM 54.1 °F - 30.6 °F 41% 30.23 in 10.0 mi SSE 17.3 mph 23.0 mph N/A   Clear
11:54 AM 55.4 °F - 31.3 °F 40% 30.22 in 10.0 mi SE 19.6 mph 25.3 mph N/A   Clear
12:14 PM 57.2 °F - 33.1 °F 40% 30.21 in 10.0 mi SSE 17.3 mph 26.5 mph N/A   Clear
12:34 PM 58.1 °F - 33.3 °F 39% 30.21 in 10.0 mi SSE 17.3 mph 24.2 mph N/A   Clear
12:54 PM 59.5 °F - 34.0 °F 38% 30.20 in 10.0 mi South 15.0 mph 23.0 mph N/A   Clear
1:14 PM 59.7 °F - 34.0 °F 38% 30.19 in 10.0 mi SSE 19.6 mph 26.5 mph N/A   Clear
1:34 PM 61.0 °F - 34.0 °F 36% 30.18 in 10.0 mi SSE 19.6 mph 26.5 mph N/A   Clear
1:54 PM 61.7 °F - 34.5 °F 36% 30.17 in 10.0 mi South 19.6 mph 26.5 mph N/A   Clear
2:14 PM 62.6 °F - 35.8 °F 37% 30.17 in 10.0 mi South 18.4 mph 27.6 mph N/A   Clear
2:34 PM 63.7 °F - 35.8 °F 35% 30.16 in 10.0 mi SSE 19.6 mph 26.5 mph N/A   Clear
2:54 PM 64.8 °F - 36.3 °F 35% 30.15 in 10.0 mi South 19.6 mph 25.3 mph N/A   Clear
3:14 PM 65.7 °F - 36.5 °F 34% 30.14 in 10.0 mi SSE 16.1 mph 21.9 mph N/A   Clear
3:34 PM 66.0 °F - 37.0 °F 34% 30.14 in 10.0 mi SSE 19.6 mph 25.3 mph N/A   Clear
3:54 PM 66.6 °F - 37.0 °F 34% 30.14 in 10.0 mi SSE 17.3 mph - N/A   Clear
4:14 PM 67.1 °F - 37.6 °F 34% 30.13 in 10.0 mi SSE 16.1 mph 21.9 mph N/A   Clear
4:34 PM 67.1 °F - 37.2 °F 33% 30.13 in 10.0 mi South 18.4 mph 24.2 mph N/A   Clear
5:14 PM 65.7 °F - 36.9 °F 35% 30.12 in 10.0 mi South 13.8 mph 19.6 mph N/A   Clear
5:34 PM 65.3 °F - 36.9 °F 35% 30.11 in 10.0 mi South 18.4 mph 21.9 mph N/A   Clear
5:54 PM 65.7 °F - 36.7 °F 34% 30.11 in 10.0 mi SSE 19.6 mph 25.3 mph N/A   Clear
6:14 PM 65.8 °F - 36.9 °F 34% 30.10 in 10.0 mi SSE 16.1 mph 23.0 mph N/A   Clear
6:34 PM 64.9 °F - 36.7 °F 35% 30.10 in 10.0 mi SSE 13.8 mph 20.7 mph N/A   Clear
6:54 PM 64.4 °F - 37.4 °F 37% 30.10 in 10.0 mi SSE 11.5 mph - N/A   Clear
7:14 PM 63.9 °F - 36.9 °F 37% 30.10 in 10.0 mi SSE 11.5 mph 17.3 mph N/A   Clear
7:34 PM 62.8 °F - 36.3 °F 37% 30.10 in 10.0 mi SSE 10.4 mph - N/A   Clear
7:54 PM 61.7 °F - 36.5 °F 39% 30.10 in 10.0 mi SSE 11.5 mph - N/A   Clear
8:14 PM 61.3 °F - 36.5 °F 40% 30.10 in 10.0 mi SSE 10.4 mph - N/A   Scattered Clouds
8:34 PM 60.3 °F - 36.5 °F 41% 30.11 in 10.0 mi SSE 9.2 mph - N/A   Mostly Cloudy
8:54 PM 60.3 °F - 36.1 °F 41% 30.10 in 10.0 mi SSE 10.4 mph - N/A   Scattered Clouds
9:14 PM 59.7 °F - 36.0 °F 41% 30.11 in 10.0 mi SSE 10.4 mph - N/A   Clear
9:34 PM 59.5 °F - 35.6 °F 41% 30.11 in 10.0 mi SSE 10.4 mph - N/A   Scattered Clouds
9:54 PM 59.2 °F - 35.6 °F 41% 30.11 in 10.0 mi SSE 10.4 mph - N/A   Mostly Cloudy
10:14 PM 59.0 °F - 35.6 °F 42% 30.11 in 10.0 mi SSE 10.4 mph - N/A   Mostly Cloudy
10:34 PM 58.6 °F - 36.3 °F 43% 30.11 in 10.0 mi SSE 11.5 mph - N/A   Mostly Cloudy
10:54 PM 59.4 °F - 36.5 °F 43% 30.11 in 10.0 mi SSE 13.8 mph - N/A   Overcast
11:14 PM 59.5 °F - 36.7 °F 43% 30.11 in 10.0 mi SSE 13.8 mph - N/A   Overcast
11:34 PM 59.9 °F - 36.1 °F 41% 30.11 in 10.0 mi South 15.0 mph - N/A   Overcast
11:54 PM 59.9 °F - 36.0 °F 41% 30.11 in 10.0 mi South 13.8 mph 19.6 mph N/A   Overcast